Regional Weather Roundup
Issued by NWS

Home | Current Version | Previous Version | Text Only | Print | Product List | Glossary Off
Versions: 1 2 3 4 5 6 7 8 9 10 11 12 13 14 15 16 17 18 19 20 21 22 23 24 25 26 27

000
ASUS45 KCYS 012310
RWRWY

WYOMING REGIONAL WEATHER ROUNDUP
NATIONAL WEATHER SERVICE CHEYENNE WY
400 PM MST THU DEC 01 2016

NOTE:  "FAIR" INDICATES FEW OR NO CLOUDS BELOW 12,000 FEET
WITH NO SIGNIFICANT WEATHER AND/OR OBSTRUCTIONS TO VISIBILITY.

WYZ001-020000-
YELLOWSTONE NATIONAL PARK

CITY           SKY/WX    TMP DP  RH WIND       PRES   REMARKS
LK YELLOWSTONE   N/A     18  13  80 CALM      29.92S
W YELLOWSTONE  NOT AVBL

$$
WYZ002>013-054>058-071-098>099-020000-
NORTHERN WYOMING

CITY           SKY/WX    TMP DP  RH WIND       PRES   REMARKS
JACKSON        PTCLDY    25  16  68 W12       29.95R WCI  14
CODY           FAIR      33  18  53 S3        29.93R
GREYBULL       MOCLDY    37  15  40 CALM      29.94R
WORLAND        CLOUDY    36  22  56 SW3       29.93R
SHERIDAN       FAIR      35  23  61 W5        29.93R WCI  31
BUFFALO        CLOUDY    37  17  44 N5        29.93R WCI  33
GILLETTE       CLOUDY    33  25  72 N8        29.93R WCI  26
HULETT         CLOUDY    32  27  80 SW3       29.93S
NEWCASTLE      MOCLDY    30  23  74 N6        29.94R WCI  24

$$
WYZ014>020-022>026-101>103-020000-
CENTRAL WYOMING

CITY           SKY/WX    TMP DP  RH WIND       PRES   REMARKS
BIG PINEY      FAIR      27  11  51 N14       29.93R WCI  16
PINEDALE       CLOUDY    27  12  54 N8G18     29.92S WCI  18
DUBOIS         MOCLDY    25  12  58 W15       29.87S WCI  12
LANDER         CLOUDY    28  15  58 CALM      29.91R
RIVERTON       CLOUDY    30  18  60 NE3       29.93R
CASPER         CLOUDY    31  20  63 W10       29.93R WCI  22
DOUGLAS        CLOUDY    35  18  49 NW12      29.93R WCI  27

$$
WYZ021-027>030-104>119-020000-
SOUTHERN WYOMING

CITY           SKY/WX    TMP DP  RH WIND       PRES   REMARKS
EVANSTON       CLOUDY    25  13  60 W10       29.97R WCI  15
FORT BRIDGER   FAIR      27  15  60 W14       29.98S WCI  15
ROCK SPRINGS   MOCLDY    25  15  66 W9        29.93S WCI  15
DIXON          LGT SNOW  26  22  82 SW7       29.99S WCI  19
RAWLINS        CLOUDY    25  17  72 SW9       29.93S WCI  15
SARATOGA       CLOUDY    27  18  69 W13       29.93S WCI  16
LARAMIE        CLOUDY    24  15  68 N12       29.88R WCI  13
CHEYENNE       CLOUDY    32  14  47 NW9       29.90R WCI  24
TORRINGTON     FAIR      38  11  32 NW9       29.92R WCI  31
PINE BLUFFS    FAIR      34  18  51 NW15      29.92S WCI  24

$$




USA.gov is the U.S. government's official web portal to all federal, state and local government web resources and services.